Regional Weather Roundup
Issued by NWS Mobile, AL

Home | Current Version | Previous Version | Text Only | Print | Product List | Glossary Off
Versions: 1 2 3 4 5 6 7 8 9 10 11 12 13 14 15 16 17 18 19 20 21 22 23 24 25 26 27

000
ASUS44 KMOB 172312
RWRMOB
REGIONAL WEATHER ROUNDUP
NATIONAL WEATHER SERVICE MOBILE AL
500 PM CST FRI NOV 17 2017

NOTE: "FAIR" INDICATES FEW OR NO CLOUDS BELOW 12,000 FEET WITH NO
      SIGNIFICANT WEATHER AND/OR OBSTRUCTIONS TO VISIBILITY.

  * THESE STATIONS ARE PART OF THE UNIVERSITY OF SOUTH ALABAMA
    MESONET AND ARE NOT UNDER NWS OR FAA QUALITY CONTROL.

ALZ061>064-180000-
COASTAL ALABAMA

CITY           SKY/WX    TMP DP  RH WIND       PRES   REMARKS
MOBILE REG APT PTCLDY    67  57  70 S8        30.05S
BROOKLEY FIELD CLEAR     68  60  75 S7        30.06S
USA CAMPUS*    NOT AVBL
DOG RIVER*     NOT AVBL


CITY           SKY/WX    TMP DP  RH WIND       PRES   REMARKS
GULF SHORES    CLEAR     65  62  90 S7        30.06S

$$

ALZ051>060-180000-
INTERIOR SOUTHWEST AND SOUTH CENTRAL ALABAMA

CITY           SKY/WX    TMP DP  RH WIND       PRES   REMARKS
GREENVILLE     CLEAR     64  50  60 CALM      30.05S
EVERGREEN      MOCLDY    67  57  70 SE3       30.06R
ATMORE*        NOT AVBL
ANDALUSIA/OPP  CLEAR     64  53  67 CALM      30.06R
ANDALUSIA*       N/A     64  54  68 SE3       30.06S
FLORALA APT    CLEAR     61  53  75 CALM      30.08S
FLORALA*         N/A     61  54  77 CALM      30.76S

$$

FLZ001>006-180000-
WESTERN FLORIDA PANHANDLE

CITY           SKY/WX    TMP DP  RH WIND       PRES   REMARKS
PENSACOLA      CLEAR     67  58  72 S6        30.06R
NAS PENSACOLA  CLEAR     66  58  75 S7        30.05S
MILTON         PTCLDY    65  60  84 S9        30.06R
WHTNG S FIELD  PTCLDY    67  56  67 S7        30.06R


CITY           SKY/WX    TMP DP  RH WIND       PRES   REMARKS
JAY*             N/A     68  55  64 SE3       30.05R
DUKE FIELD     MOCLDY    66  55  66 S6        30.06R
CRESTVIEW      MOCLDY    67  56  67 S3        30.08R
VALPARAISO     PTCLDY    66  56  69 SW3       30.06S
DESTIN         CLEAR     70  55  59 CALM      30.06S

$$

MSZ076-079-180000-
INTERIOR SOUTHEAST MISSISSIPPI

CITY           SKY/WX    TMP DP  RH WIND       PRES   REMARKS
LEAKESVILLE*     N/A     70  59  68 SW3       30.04S
AGRICOLA*      NOT AVBL

$$

MARINE OBSERVATIONS

STATION/POSITION TIME  TEMP    WIND        PRES    WAVE
                       AIR SEA DIR/SP/G            HT/PER
                 (UTC) (F)     (DEG/KT/KT) (MB)    (FT/S)
KATRINA CUT      2230   69     130/  8     1018.0R
CEDAR POINT      2230   69     140/  5     1017.6S
E DAUPHIN ISLAND 2200   69     130/  7/  8 1017.3F
MIDDLE BAY LIGHT 2230   68     140/  5     1017.6R
MEAHER PARK      2230   69     170/  9     1018.0R
WEEKS BAY        2145   70                 1017.0F
12 S ORANGE BCH  NOT AVBL
64 S DAUPHIN ISL 2250   74 79  150/  4/  6 1017.7R   1/ 5
67 S FORT MORGAN 2230   73     110/  4     1017.3F

$$

SELECTED LOCATIONS ACROSS THE REGION

CITY           SKY/WX    TMP DP  RH WIND       PRES   REMARKS
NEW ORLEANS    PTCLDY    73  62  68 S9        30.02F
GULFPORT       CLEAR     68  64  87 SE7       30.03F
PASCAGOULA AP  CLEAR     66  61  84 SE6       30.05S
PASCAGOULA*      N/A     55  54  94 S2          N/A
HATTIESBURG    CLEAR     71  60  68 S8        30.03R
LAUREL         CLEAR     70  57  63 S5        30.02S
MERIDIAN       CLEAR     69  59  70 SE7       30.01R
JACKSON        PTCLDY    73  56  54 S9        29.96F
MONTGOMERY     CLEAR     62  44  51 E3        30.06S
TROY           CLEAR     58  50  75 CALM      30.07R
ASHFORD*         N/A     64  54  68 SE3       30.06S
DOTHAN         CLEAR     61  45  55 CALM      30.10S
PANAMA CITY    CLEAR     65  55  70 SW5       30.05S

$$





USA.gov is the U.S. government's official web portal to all federal, state and local government web resources and services.